This is the latest recevied weather packets stored in our database for station/object K5WNG. If no packets are shown the sender has not sent any weather packets the latest 10 day(s).
| Time | Temp. | Humidity | Pressure | Rain* | Wind** | Luminosity | Snow |
|---|---|---|---|---|---|---|---|
| 1777761917 | 26.11° C | 43% | 1019.4 hPa | 0 mm | - | 441 W/m² | - |
| 1777761616 | 25.56° C | 43% | 1019.4 hPa | 0 mm | - | 459 W/m² | - |
| 1777761316 | 25.56° C | 42% | 1019.5 hPa | 0 mm | - | 486 W/m² | - |
| 1777760719 | 25.56° C | 44% | 1019.5 hPa | 0 mm | - | 526 W/m² | - |
| 1777760116 | 25.56° C | 43% | 1019.6 hPa | 0 mm | - | 539 W/m² | - |
| 1777759816 | 25.56° C | 43% | 1019.6 hPa | 0 mm | - | 586 W/m² | - |
| 1777759520 | 25.56° C | 43% | 1019.6 hPa | 0 mm | - | 600 W/m² | - |
| 1777758917 | 25.56° C | 42% | 1019.7 hPa | 0 mm | - | 646 W/m² | - |
| 1777758620 | 25.56° C | 43% | 1019.7 hPa | 0 mm | - | 660 W/m² | - |
| 1777757717 | 25.56° C | 44% | 1019.8 hPa | 0 mm | - | 720 W/m² | - |
| 1777757422 | 25° C | 43% | 1019.9 hPa | 0 mm | - | 736 W/m² | - |
| 1777757117 | 25° C | 42% | 1019.9 hPa | 0 mm | - | 763 W/m² | - |
| 1777756818 | 25.56° C | 43% | 1020.1 hPa | 0 mm | - | 789 W/m² | - |
| 1777756520 | 25.56° C | 44% | 1020.1 hPa | 0 mm | - | 808 W/m² | - |
| 1777756218 | 25.56° C | 43% | 1020.1 hPa | 0 mm | - | 839 W/m² | - |
| 1777755917 | 25.56° C | 44% | 1020.2 hPa | 0 mm | - | 827 W/m² | - |
| 1777754118 | 25° C | 42% | 1020.6 hPa | 0 mm | - | 900 W/m² | - |
| 1777753518 | 24.44° C | 44% | 1020.7 hPa | 0 mm | - | 937 W/m² | - |
| 1777753223 | 24.44° C | 42% | 1020.8 hPa | 0 mm | - | 944 W/m² | - |
| 1777752921 | 24.44° C | 44% | 1020.8 hPa | 0 mm | - | 957 W/m² | - |
| 1777752618 | 24.44° C | 45% | 1020.9 hPa | 0 mm | - | 967 W/m² | - |
| 1777752318 | 24.44° C | 43% | 1020.9 hPa | 0 mm | - | 976 W/m² | - |
| 1777752015 | 24.44° C | 44% | 1020.9 hPa | 0 mm | - | 989 W/m² | - |
| 1777751716 | 24.44° C | 43% | 1020.8 hPa | 0 mm | - | 996 W/m² | - |
| 1777751419 | 24.44° C | 44% | 1020.9 hPa | 0 mm | - | 1007 W/m² | - |
* Rain latest hour (hover to see other rain measurements)
** Current wind speed in m/s (hover to see current wind gust speed)